Regional Weather Roundup
Issued by NWS

Home | Current Version | Previous Version | Text Only | Print | Product List | Glossary Off
Versions: 1 2 3 4 5 6 7 8 9 10 11 12 13 14 15 16 17 18 19 20 21 22 23 24 25 26 27 28 29 30 31 32 33 34 35 36 37 38 39 40 41 42 43 44 45 46 47 48 49 50

000
ASUS43 KMPX 270210
RWRMN
WEATHER ROUNDUP FOR MINNESOTA
NATIONAL WEATHER SERVICE TWIN CITIES/CHANHASSEN MN
900 PM CDT TUE AUG 26 2014


NOTE: "FAIR" INDICATES FEW OR NO CLOUDS BELOW 12,000 FEET WITH NO
SIGNIFICANT WEATHER AND/OR OBSTRUCTIONS TO VISIBILITY. N/A MEANS
CURRENT SKY AND/OR WEATHER CONDITIONS ARE NOT AVAILABLE.

MNZ060>063-068>070-270300-
   Twin Cities Metro

CITY           SKY/WX    TMP DP  RH WIND       PRES   REMARKS
TWIN CITIES    MOCLDY    69  53  56 NW5       30.14S
ST PAUL        MOCLDY    68  53  58 CALM      30.15R
CRYSTAL        MOCLDY    68  54  60 N8        30.13S
LAKEVILLE      MOCLDY    63  55  77 W3        30.15S
EDEN PRAIRIE   PTCLDY    67  55  65 CALM      30.14R
SOUTH ST PAUL  MOCLDY    69  52  54 CALM      30.15R
LAKE ELMO      FAIR      64  55  72 CALM      30.16S
$$
MNZ001>005-007-008-013>017-022>024-027-028-270300-
   Northwest Minnesota

CITY           SKY/WX    TMP DP  RH WIND       PRES   REMARKS
BEMIDJI        LGT RAIN  56  52  87 CALM      30.16R
HALLOCK        CLEAR     55  52  88 E6        30.13R
ROSEAU         PTCLDY    52  46  82 CALM      30.16R
WARROAD        MOCLDY    50  46  87 CALM      30.16S
THIEF RVR FALL CLOUDY    59  50  72 E5        30.15R
CROOKSTON      PTCLDY    57  54  88 S6        30.15R
FOSSTON        CLOUDY    54  48  82 CALM      30.16S
DETROIT LAKES  LGT RAIN  59  54  82 CALM      30.17R
MOORHEAD       MOCLDY    61  61 100 CALM      30.15S
PARK RAPIDS    LGT RAIN  60  53  77 CALM      30.15F
MAHNOMEN       MOCLDY    57  54  90 CALM      30.16R
$$
MNZ006-009>011-018-025>026-270300-
   North Central Minnesota

CITY           SKY/WX    TMP DP  RH WIND       PRES   REMARKS
BAUDETTE       CLOUDY    52  48  86 CALM      30.16S
FLAG ISLAND    PTCLDY    55  48  76 W6        30.14R
INTL FALLS     CLOUDY    54  47  77 W6        30.16R
WASKISH        CLOUDY    54  50  87 CALM      30.16S
BIG FORK       MOCLDY    54  50  87 CALM      30.17S
LONGVILLE      CLOUDY    55  54  94 CALM      30.16R
GRAND RAPIDS   MOCLDY    55  48  76 N3        30.18R
CRANE LAKE     CLOUDY    55  46  71 CALM      30.17S
ORR            MOCLDY    55  45  67 CALM      30.14S
COOK           CLOUDY    55  48  76 W3        30.17R
WALKER         LGT RAIN  56  53  87 CALM      30.15F
$$
MNZ012-019>021-037-270300-
   Northeast Minnesota

CITY           SKY/WX    TMP DP  RH WIND       PRES   REMARKS
DULUTH         PTCLDY    57  49  74 N6        30.15S
ELY            CLOUDY    55  48  76 NW3       30.16R
HIBBING        PTCLDY    55  48  77 NW5       30.17R
EVELETH        PTCLDY    57  48  72 NW6       30.17S
DULUTH HARBOR  PTCLDY    64  52  63 NW5       30.15R
TWO HARBORS    PTCLDY    55  48  76 CALM      30.13R
SILVER BAY     PTCLDY    52  52 100 CALM      30.13R
GRAND MARAIS     N/A     59  49  69 CALM      30.13R
G MARAIS ARPRT CLOUDY    54  45  71 CALM      30.15S
$$
MNZ029>031-032-039>041-046>048-054>057-064-270300-
   West Central Minnesota

CITY           SKY/WX    TMP DP  RH WIND       PRES   REMARKS
FERGUS FALLS   CLOUDY    63  54  72 CALM      30.15R
WHEATON        MOCLDY    57  54  88 CALM      30.17S
MORRIS         MOCLDY    61  57  88 CALM      30.16R
ALEXANDRIA     CLOUDY    62  56  80 CALM      30.17S
ELBOW LAKE     CLOUDY    59  56  91 CALM      30.15S
WADENA         CLOUDY    59  54  82 CALM      30.15F
GLENWOOD       CLOUDY    61  57  88 SW3       30.17S
APPLETON       MOCLDY    63  55  77 CALM      30.15S
BENSON         MOCLDY    59  57  94 CALM      30.16S
ORTONVILLE     MOCLDY    61  55  82 NE3       30.16R
MADISON        MOCLDY    64  57  77 NE6       30.15R
WILLMAR        FAIR      64  55  72 N3        30.18R
$$
MNZ033>034-036-042>043-049>051-058-059-270300-
   Central Minnesota

CITY           SKY/WX    TMP DP  RH WIND       PRES   REMARKS
ST CLOUD       CLOUDY    65  56  72 CALM      30.15R
SAUK CENTRE    CLOUDY    60  57  91 CALM      30.17R
PAYNESVILLE    RAIN      60  55  83 W3        30.17R
AITKIN         MOCLDY    55  52  88 CALM      30.16S
PINE RIVER     MOCLDY    57  54  88 CALM      30.19R
BRAINERD         N/A     58  53  84 E3        30.17R
STAPLES        CLOUDY    61  54  77 CALM      30.16S
LONG PRAIRIE   CLOUDY    61  54  77 CALM      30.17R
LITTLE FALLS   MOCLDY    59  55  88 CALM      30.16S
LITCHFIELD     PTCLDY    64  57  77 CALM      30.16S
BUFFALO        MOCLDY    65  55  69 CALM      30.16R
MAPLE LAKE     MOCLDY    64  58  81 CALM      30.17R
$$
MNZ037-044-045-052-053-270300-
   East Central Minnesota

CITY           SKY/WX    TMP DP  RH WIND       PRES   REMARKS
PRINCETON      CLOUDY    64  57  77 CALM      30.16R
MORA           LGT RAIN  55  54  94 CALM      30.18R
CAMBRIDGE      MOCLDY    64  54  68 N3        30.14S
RUSH CITY      MOCLDY    60  56  85 CALM      30.16R
MOOSE LAKE     PTCLDY    57  52  82 CALM      30.15R
HINCKLEY       FAIR      57  55  94 CALM      30.16R
CLOQUET        PTCLDY    55  50  82 W3        30.16R
MCGREGOR       PTCLDY    55  50  82 CALM      30.17S
$$
MNZ071>073-080-081-089-090-097-098-270300-
   Southwest Minnesota

CITY           SKY/WX    TMP DP  RH WIND       PRES   REMARKS
MONTEVIDEO     CLOUDY    63  57  82 E5        30.17R
GRANITE FALLS  MOCLDY    63  57  81 NE6       30.16S
CANBY          MOCLDY    62  57  83 CALM      30.17R
MARSHALL       PTCLDY    64  55  72 E9        30.14R
REDWOOD FALLS  PTCLDY    66  57  72 CALM      30.15R
OLIVIA         PTCLDY    63  55  77 N3        30.15S
PIPESTONE      PTCLDY    64  57  77 SE5       30.15S
WINDOM         PTCLDY    61  55  82 CALM      30.17R
WORTHINGTON    CLEAR     61  57  88 E5        30.18R
JACKSON        PTCLDY    61  55  82 NE5       30.18R
TRACY          MOCLDY    65  58  79 CALM      30.16R
SLAYTON        CLEAR     61  56  84 CALM      30.17R
$$
MNZ065>067-074>077-082>085-091>093-270300-
   South Central Minnesota

CITY           SKY/WX    TMP DP  RH WIND       PRES   REMARKS
MANKATO        PTCLDY    64  54  68 N5        30.15S
NEW ULM        PTCLDY    66  57  72 CALM      30.15S
ST JAMES       PTCLDY    61  57  88 CALM      30.17R
FAIRMONT       PTCLDY    59  55  88 MISG      30.16R
GLENCOE        PTCLDY    66  55  68 CALM      30.15R
FARIBAULT      MOCLDY    63  57  82 CALM      30.16R
OWATONNA       MOCLDY    64  57  77 CALM      30.16R
WASECA         MOCLDY    59  52  77 N3        30.17R
ALBERT LEA     CLOUDY    64  59  82 CALM      30.15S
$$
MNZ078>079-086>088-094>096-270300-
   Southeast Minnesota

CITY           SKY/WX    TMP DP  RH WIND       PRES   REMARKS
ROCHESTER      MOCLDY    64  57  78 CALM      30.17R
RED WING       MOCLDY    64  59  82 CALM      30.14R
STANTON        MOCLDY    63  58  81 CALM      30.14R
DODGE CENTER   MOCLDY    63  61  94 CALM      30.16S
WINONA         CLOUDY    68  57  68 CALM      30.15R
AUSTIN         CLOUDY    64  57  77 CALM      30.15S
PRESTON        CLOUDY    63  62  96 CALM      30.16S
$$
ABBREVIATIONS USED IN REMARKS
   TC - TEMPERATURES IN CELSIUS
  WCI - WIND CHILL INDEX
   HX - HEAT INDEX
  VSB - VISIBILITY
$$


USA.gov is the U.S. government's official web portal to all federal, state and local government web resources and services.